LEJRGEML

Guest
Details From LEJR - Jerez
To GEML - Melilla
Flight Number -
Tags Routegen
Created
Modified
Stats Distance 185 nm / 343 km
Max Altitude 0 ft / 0 m
Waypoints 4
Social Downloads 10
Likes 0
Share

Download

Looking for another format? Having issues loading an existing format? Contact us
Advertisement - Login to hide

Notes

None

Route

LEJR +36.60_-006.13 +35.65_-003.26 GEML

ID Type Via Altitude (ft/m) Position (lat/lon) Dist (leg/tot) Name
O LEJR APT - 0 / 0 36.73497 / -6.06481 - / 0 nm
+36.60_-006.13 DME - 0 / 0 36.60014 / -6.13041 8 / 8 nm
+35.65_-003.26 DME - 0 / 0 35.64712 / -3.25692 150 / 159 nm
O GEML APT - 0 / 0 35.28586 / -2.96118 26 / 185 nm

Altitude Profile

Advertisement - Login to hide

Weather


0- 5 10 15 20 25 30 35+ Temperature / °C

Clouds and Precipitation
Forecast for 2022-06-28 12:00 UTC. Updated 5 hours ago

Ground ~20,000 ft ~40,000 ft Winds

LEJR

Details ICAO LEJR (XRY)
Name Jerez La Parra
Region Spain
Timezone Europe/Madrid (UTC+2.0)
Stats Elevation 93 ft / 28 m (AMSL)
Location 36.744600° -6.060110°
Runways 1
Magnetic Variation 0.814° W

METAR

LEJR 281500Z 25009KT 200V290 CAVOK 33/12 Q1015

Decode

TAF

TAF LEJR 281400Z 2815/2915 28010KT CAVOK TX32/2815Z TN17/2905Z BECMG 2820/2822 18005KT

Decode

Departure Runways

ID Width Length Bearing (true/mag) Surface Threshold Overrun Markings Lighting
02 148 ft / 45 m 7,567 ft / 2,306 m 21.36° / 22.17° ASPHALT 0 ft / 0 m 197 ft / 60 m PREC-APP CENTERLINE EDGE THRESHOLD SALS REIL-OMNI
20 148 ft / 45 m 7,567 ft / 2,306 m 201.36° / 202.18° ASPHALT 0 ft / 0 m 197 ft / 60 m PREC-APP CENTERLINE EDGE THRESHOLD CALVERT-ILS REIL-OMNI

GEML

Details ICAO GEML (MLN)
Name Melilla
Region Ceuta and Melilla
Timezone Africa/Casablanca (UTC+1.0)
Stats Elevation 156 ft / 48 m (AMSL)
Location 35.280500° -2.956780°
Runways 1
Magnetic Variation 0.036° E

METAR

GEML 281500Z 08005KT 010V140 CAVOK 25/16 Q1016

Decode

TAF

TAF TAF GEML 281100Z 2812/2912 09010KT CAVOK TX27/2813Z TN19/2905Z BECMG 2818/2820 VRB02KT PROB40 TEMPO 2902/2908 4000 BR BKN006

Decode

Destination Runways

ID Width Length Bearing (true/mag) Surface Threshold Overrun Markings Lighting
15 149 ft / 45 m 4,886 ft / 1,489 m 146.47° / 146.43° ASPHALT 958 ft / 292 m 0 ft / 0 m PREC-APP EDGE THRESHOLD RAIL REIL-OMNI
33 149 ft / 45 m 4,886 ft / 1,489 m 326.47° / 326.44° ASPHALT 0 ft / 0 m 315 ft / 96 m PREC-APP EDGE THRESHOLD REIL-OMNI

Popular Alternatives